Vertical_Velocity
-1 3 1 2 -1 -1 5 6 -1 -1 -5 0 3 3 -1 -0 4 5 9 -1 -2 3
5 -1 1 -1 4 7 2 2 -2 -2 -2 1 8 -1 -1 2 1 8 2 0 1 -1
4 3 2 5 3 4 -1 -5 1 4 6 1 -4 -4 2 4 1 1 -1 -2 -6 -2
5 1 5 2 3 1 1 -1 4 1 3 -3 2 4 3 1 1 1 -4 -3 1 7
5 4 2 5 1 2 3 -2 4 4 -0 1 4 1 2 1 -5 -5 2 3 3 2
1 2 -2 -1 1 1 -3 3 3 -1 0 2 0 -3 -1 -3 2 2 4 2 1 -1
1 6 7 5 2 -2 -0 0 2 -4 1 0 3 1 0 1 1 -2 0 2 1 1
2 3 2 -3 3 -2 -3 6 6 2 3 4 1 -0 3 0 -1 1 3 2 1 1
1 2 4 4 1 2 2 1 3 1 2 -4 0 4 3 -1 2 1 2 2 1 -1
-2 -1 1 3 7 4 4 4 3 3 2 2 2 -1 -2 -0 2 2 -0 -1 -1 0
-3 -3 -3 -1 -6 -1 -1 -2 -1 -1 0 1 1 3 2 0 -1 -0 0 1 2 1
-2 -3 -4 -5 -4 -3 -2 -1 -0 0 1 1 -1 -1 -1 -1 1 -0 0 -0 -6 -3
4 4 1 -2 -0 -0 -1 -1 -1 -1 -0 0 1 1 -1 -0 1 0 -5 1 4 -1
4 2 3 7 7 3 -0 -3 -1 2 2 2 2 1 2 0 -2 1 0 -0 -2 -1
Height
1470 1475 1477 1483 1486 1490 1495 1499 1504 1507 1512 1516 1516 1517 1522 1523 1524 1524 1523 1526 1528 1528
1469 1471 1475 1480 1486 1488 1492 1497 1501 1505 1508 1512 1511 1513 1518 1520 1521 1522 1520 1523 1525 1526
1467 1470 1475 1479 1483 1485 1489 1494 1499 1503 1505 1506 1509 1512 1514 1515 1515 1516 1518 1520 1521 1523
1467 1467 1471 1475 1478 1483 1488 1490 1495 1497 1501 1502 1505 1507 1507 1509 1511 1512 1514 1517 1519 1519
1464 1467 1470 1471 1475 1480 1483 1487 1491 1493 1496 1499 1500 1500 1503 1504 1506 1510 1512 1513 1516 1515
1464 1464 1465 1468 1473 1476 1480 1485 1486 1489 1491 1492 1494 1497 1499 1502 1504 1505 1508 1510 1511 1511
1460 1462 1463 1465 1468 1471 1475 1477 1479 1483 1487 1490 1491 1493 1496 1498 1498 1502 1505 1506 1506 1507
1459 1460 1461 1462 1464 1466 1470 1473 1476 1479 1485 1486 1487 1491 1493 1492 1495 1498 1500 1501 1501 1503
1458 1459 1460 1461 1463 1466 1468 1471 1474 1478 1481 1483 1487 1487 1487 1489 1491 1493 1495 1497 1498 1500
1458 1460 1461 1464 1462 1466 1468 1470 1474 1477 1479 1481 1482 1482 1483 1486 1488 1490 1492 1494 1494 1495
1458 1458 1460 1458 1461 1466 1466 1470 1472 1475 1476 1477 1478 1478 1480 1482 1485 1487 1488 1489 1490 1491
1458 1458 1458 1460 1463 1464 1465 1467 1469 1471 1473 1473 1474 1476 1478 1479 1481 1483 1484 1485 1486 1487
1453 1455 1456 1458 1460 1461 1463 1465 1467 1468 1469 1470 1471 1473 1475 1476 1478 1479 1480 1479 1480 1480
1451 1452 1452 1454 1455 1457 1459 1461 1463 1464 1466 1467 1469 1470 1471 1472 1472 1473 1473 1473 1474 1476